THY9FP LTFM-EFHK

Flight info

Callsign THY9FP
Flight time N/A
Altitude 36000
Route IBLAX P727 BGS L622 GONGO DCT KOMAN DCT LARMU DCT KENIN DCT TOXAR/N0460F370 DCT SUWGI DCT BOKSU DCT INBOV DCT GUNTA DCT KEMET Q11 INTOR
Aircraft B764/H-SDE3FGHIM3RWXY/LB1

Departure

Time N/A
Airport İstanbul Airport (LTFM)

Arrival

Time 2026-04-24 20:31
Airport Helsinki Vantaa Airport (EFHK)
Time Latitude Longitude Altitude Speed Heading
2026-04-24 16:44 41.27235 28.73748 336 ft 0 kts 359°
2026-04-24 17:08 41.27254 28.73748 336 ft 2 kts 359°
2026-04-24 17:08 41.27279 28.73742 336 ft 2 kts 338°
2026-04-24 17:08 41.27291 28.73731 336 ft 1 kts 316°
2026-04-24 17:09 41.27305 28.73679 336 ft 6 kts 276°
2026-04-24 17:09 41.27307 28.73534 336 ft 7 kts 270°
2026-04-24 17:10 41.27307 28.73485 336 ft 7 kts 270°
2026-04-24 17:10 41.27305 28.73208 336 ft 9 kts 269°
2026-04-24 17:11 41.27385 28.73079 336 ft 4 kts 296°
2026-04-24 17:12 41.27453 28.72991 336 ft 0 kts 352°
2026-04-24 18:54 49.84220 22.15365 36992 ft 411 kts
2026-04-24 18:55 49.92681 22.16921 36984 ft 411 kts
2026-04-24 18:56 49.98376 22.17970 36981 ft 411 kts
2026-04-24 18:56 50.04032 22.19016 36979 ft 411 kts
2026-04-24 18:57 50.09672 22.20061 36981 ft 413 kts
2026-04-24 18:57 50.15375 22.21120 36994 ft 413 kts
2026-04-24 18:58 50.21060 22.22178 36995 ft 412 kts
2026-04-24 18:58 50.26743 22.23239 36986 ft 413 kts
2026-04-24 18:59 50.32434 22.24302 36988 ft 415 kts
2026-04-24 18:59 50.38135 22.25372 36987 ft 413 kts
2026-04-24 19:00 50.43825 22.26441 36981 ft 413 kts
2026-04-24 19:00 50.49514 22.27512 36976 ft 414 kts
2026-04-24 19:01 50.55237 22.28593 36977 ft 414 kts
2026-04-24 19:01 50.60932 22.29672 36975 ft 414 kts
2026-04-24 19:02 50.65670 22.30571 36966 ft 414 kts
2026-04-24 19:02 50.72343 22.31840 36968 ft 415 kts
2026-04-24 19:03 50.78075 22.32933 36969 ft 416 kts
2026-04-24 19:03 50.83785 22.34025 36966 ft 415 kts
2026-04-24 19:04 50.89492 22.35118 36966 ft 415 kts
2026-04-24 19:04 50.95223 22.36220 36969 ft 415 kts
2026-04-24 19:05 51.00930 22.37318 36968 ft 416 kts
2026-04-24 19:05 51.06673 22.38427 36958 ft 416 kts
2026-04-24 19:06 51.12412 22.39539 36980 ft 417 kts
2026-04-24 19:06 51.18141 22.40650 36975 ft 416 kts
2026-04-24 19:07 51.23893 22.41769 36970 ft 417 kts
2026-04-24 19:07 51.28677 22.42702 36966 ft 417 kts
2026-04-24 19:08 51.35386 22.44013 36961 ft 418 kts
2026-04-24 19:08 51.41128 22.45138 36954 ft 418 kts
2026-04-24 19:09 51.46870 22.46268 36945 ft 417 kts
2026-04-24 19:09 51.52626 22.47401 36939 ft 418 kts
2026-04-24 19:10 51.58393 22.48540 36942 ft 419 kts
2026-04-24 19:10 51.64169 22.49685 36939 ft 419 kts
2026-04-24 19:11 51.69904 22.50823 36937 ft 418 kts
2026-04-24 19:11 51.75666 22.51970 36935 ft 419 kts
2026-04-24 19:12 51.81422 22.53118 36936 ft 420 kts
2026-04-24 19:12 51.87198 22.54274 36927 ft 419 kts
2026-04-24 19:13 51.91998 22.55236 36923 ft 421 kts
2026-04-24 19:13 51.98786 22.56601 36925 ft 421 kts
2026-04-24 19:14 52.04542 22.57762 36924 ft 419 kts
2026-04-24 19:14 52.10324 22.58931 36922 ft 420 kts
2026-04-24 19:15 52.16141 22.60109 36924 ft 422 kts
2026-04-24 19:15 52.21912 22.61283 36925 ft 421 kts
2026-04-24 19:16 52.30539 22.63042 36923 ft 421 kts
2026-04-24 19:16 52.36321 22.64224 36923 ft 421 kts
2026-04-24 19:17 52.42056 22.65401 36913 ft 422 kts
2026-04-24 19:17 52.47898 22.66601 36913 ft 423 kts
2026-04-24 19:18 52.53683 22.67795 36909 ft 422 kts
2026-04-24 19:18 52.59504 22.68998 36911 ft 423 kts
2026-04-24 19:19 52.65231 22.70185 36907 ft 422 kts
2026-04-24 19:19 52.71079 22.71401 36901 ft 423 kts
2026-04-24 19:20 52.76899 22.72613 36907 ft 424 kts
2026-04-24 19:20 52.82736 22.73834 36898 ft 423 kts
2026-04-24 19:21 52.88538 22.75049 36900 ft 423 kts
2026-04-24 19:21 52.94339 22.76267 36891 ft 424 kts
2026-04-24 19:22 53.00126 22.77487 36902 ft 424 kts
2026-04-24 19:22 53.05997 22.78727 36893 ft 424 kts
2026-04-24 19:23 53.11669 22.79928 36896 ft 423 kts
2026-04-24 19:23 53.17499 22.81166 36883 ft 425 kts
2026-04-24 19:24 53.23348 22.82412 36879 ft 426 kts
2026-04-24 19:24 53.29221 22.83666 36882 ft 427 kts
2026-04-24 19:25 53.35105 22.84926 36873 ft 428 kts
2026-04-24 19:25 53.41027 22.86198 36882 ft 428 kts
2026-04-24 19:26 53.46833 22.87448 36873 ft 427 kts
2026-04-24 19:26 53.52711 22.88716 36881 ft 428 kts
2026-04-24 19:27 53.58596 22.89991 36876 ft 429 kts
2026-04-24 19:27 53.64505 22.91275 36891 ft 430 kts
2026-04-24 19:28 53.70422 22.92564 36883 ft 428 kts
2026-04-24 19:28 53.76324 22.93853 36878 ft 429 kts
2026-04-24 19:29 53.85201 22.95798 36866 ft 431 kts
2026-04-24 19:30 53.91092 22.97093 36878 ft 431 kts
2026-04-24 19:30 53.97044 22.98406 36875 ft 432 kts
2026-04-24 19:31 54.02990 22.99722 36871 ft 433 kts
2026-04-24 19:31 54.08959 23.01046 36864 ft 433 kts
2026-04-24 19:32 54.14858 23.02359 36862 ft 434 kts
2026-04-24 19:32 54.20834 23.03692 36856 ft 435 kts
2026-04-24 19:33 54.26819 23.05032 36854 ft 436 kts
2026-04-24 19:33 54.32775 23.06499 36873 ft 437 kts
2026-04-24 19:34 54.38751 23.08323 36862 ft 438 kts
2026-04-24 19:34 54.44765 23.10150 36856 ft 439 kts
2026-04-24 19:35 54.50753 23.11973 36855 ft 440 kts
2026-04-24 19:35 54.56770 23.13808 36865 ft 441 kts
2026-04-24 19:36 54.62819 23.15659 36845 ft 440 kts
2026-04-24 19:36 54.68825 23.17502 36851 ft 442 kts
2026-04-24 19:37 54.74853 23.19357 36851 ft 443 kts
2026-04-24 19:37 54.80892 23.21221 36843 ft 445 kts
2026-04-24 19:38 54.86948 23.23098 36840 ft 443 kts
2026-04-24 19:38 54.92992 23.24975 36847 ft 443 kts
2026-04-24 19:39 54.99070 23.26866 36836 ft 446 kts
2026-04-24 19:39 55.05159 23.28770 36840 ft 445 kts
2026-04-24 19:40 55.11209 23.30667 36848 ft 445 kts
2026-04-24 19:40 55.17277 23.32575 36846 ft 446 kts
2026-04-24 19:41 55.23367 23.34495 36841 ft 447 kts
2026-04-24 19:41 55.26387 23.35449 36993 ft 449 kts
2026-04-24 19:41 55.29472 23.36427 36850 ft 448 kts
2026-04-24 19:42 55.35511 23.38346 36825 ft 441 kts
2026-04-24 19:42 55.41533 23.40261 36838 ft 445 kts
2026-04-24 19:43 55.47624 23.42360 36831 ft 449 kts
2026-04-24 19:43 55.53699 23.44567 36837 ft 449 kts
2026-04-24 19:44 55.59782 23.46781 36831 ft 448 kts
2026-04-24 19:44 55.65874 23.49004 36834 ft 449 kts
2026-04-24 19:45 55.71949 23.51228 36834 ft 450 kts
2026-04-24 19:45 55.78060 23.53473 36835 ft 450 kts
2026-04-24 19:46 55.84162 23.55722 36838 ft 451 kts
2026-04-24 19:46 55.90211 23.57958 36832 ft 450 kts
2026-04-24 19:47 55.96173 23.60169 36837 ft 450 kts
2026-04-24 19:47 56.02295 23.62446 36834 ft 452 kts
2026-04-24 19:48 56.08416 23.64730 36834 ft 451 kts
2026-04-24 19:48 56.17260 23.68044 36833 ft 453 kts
2026-04-24 19:49 56.29560 23.72679 36826 ft 454 kts
2026-04-24 19:50 56.41831 23.77110 36826 ft 453 kts
2026-04-24 19:51 56.51114 23.80198 36818 ft 453 kts
2026-04-24 19:52 56.60348 23.83286 36818 ft 453 kts
2026-04-24 19:52 56.66522 23.85360 36812 ft 453 kts
2026-04-24 19:53 56.72703 23.87443 36817 ft 454 kts
2026-04-24 19:54 56.81968 23.90579 36817 ft 454 kts
2026-04-24 19:54 56.88168 23.92686 36814 ft 455 kts
2026-04-24 19:55 56.92264 23.94082 36817 ft 455 kts
2026-04-24 19:55 57.00563 23.96920 36814 ft 456 kts
2026-04-24 19:56 57.06748 23.99044 36812 ft 455 kts
2026-04-24 19:56 57.12937 24.01176 36815 ft 455 kts
2026-04-24 19:57 57.19132 24.03318 36814 ft 455 kts
2026-04-24 19:57 57.25267 24.05447 36805 ft 454 kts
2026-04-24 19:58 57.30417 24.07238 36808 ft 455 kts
2026-04-24 19:58 57.37641 24.09760 36812 ft 456 kts
2026-04-24 19:59 57.43850 24.11936 36807 ft 456 kts
2026-04-24 19:59 57.50055 24.14119 36812 ft 455 kts
2026-04-24 20:00 57.56246 24.16303 36810 ft 455 kts
2026-04-24 20:00 57.62462 24.18504 36796 ft 455 kts
2026-04-24 20:01 57.68632 24.20696 36799 ft 455 kts
2026-04-24 20:01 57.74811 24.22899 36790 ft 455 kts
2026-04-24 20:02 57.79940 24.24734 36793 ft 455 kts
2026-04-24 20:02 57.87159 24.27326 36796 ft 456 kts
2026-04-24 20:03 57.93361 24.29561 36794 ft 455 kts
2026-04-24 20:03 57.99548 24.31797 36795 ft 455 kts
2026-04-24 20:04 58.05722 24.34038 36787 ft 455 kts
2026-04-24 20:04 58.11810 24.36255 36787 ft 454 kts
2026-04-24 20:05 58.18029 24.38527 36780 ft 456 kts
2026-04-24 20:05 58.24178 24.40783 36773 ft 455 kts
2026-04-24 20:06 58.30355 24.43056 36767 ft 454 kts
2026-04-24 20:06 58.36421 24.45295 36778 ft 454 kts
2026-04-24 20:07 58.41574 24.47205 36775 ft 454 kts
2026-04-24 20:07 58.48722 24.49863 36777 ft 454 kts
2026-04-24 20:08 58.54920 24.52177 36777 ft 453 kts
2026-04-24 20:08 58.61037 24.54469 36769 ft 453 kts
2026-04-24 20:09 58.67200 24.56785 36766 ft 454 kts
2026-04-24 20:09 58.73375 24.59098 36750 ft 452 kts
2026-04-24 20:09 58.76432 24.60192 36699 ft 437 kts
2026-04-24 20:10 58.79322 24.61231 36645 ft 420 kts
2026-04-24 20:10 58.82167 24.62252 36044 ft 416 kts
2026-04-24 20:10 58.84998 24.63266 35131 ft 420 kts
2026-04-24 20:10 58.87862 24.64296 34176 ft 423 kts
2026-04-24 20:11 58.90712 24.65324 33178 ft 422 kts
2026-04-24 20:11 58.93579 24.66361 32132 ft 423 kts
2026-04-24 20:11 58.96462 24.67405 31493 ft 423 kts
2026-04-24 20:11 58.99316 24.68441 30890 ft 426 kts
2026-04-24 20:12 59.02253 24.69509 30269 ft 429 kts
2026-04-24 20:12 59.05157 24.70567 29647 ft 431 kts
2026-04-24 20:12 59.08082 24.71636 29023 ft 430 kts
2026-04-24 20:12 59.10988 24.72699 28429 ft 427 kts
2026-04-24 20:13 59.13739 24.73708 27867 ft 424 kts
2026-04-24 20:13 59.16656 24.74777 27224 ft 422 kts
2026-04-24 20:13 59.19511 24.75477 26338 ft 412 kts 358°
2026-04-24 20:13 59.22291 24.75208 25578 ft 395 kts 349°
2026-04-24 20:14 59.24912 24.74571 24830 ft 386 kts 351°
2026-04-24 20:14 59.27557 24.74131 24107 ft 380 kts 352°
2026-04-24 20:14 59.30120 24.73789 23339 ft 373 kts 352°
2026-04-24 20:14 59.32703 24.73502 22597 ft 370 kts 353°
2026-04-24 20:15 59.35242 24.73262 21844 ft 364 kts 353°
2026-04-24 20:15 59.37709 24.73051 21109 ft 358 kts 353°
2026-04-24 20:15 59.40173 24.72854 20359 ft 353 kts 354°
2026-04-24 20:15 59.42571 24.72670 19621 ft 349 kts 354°
2026-04-24 20:16 59.44981 24.72491 18864 ft 343 kts 354°
2026-04-24 20:16 59.47321 24.72320 18130 ft 337 kts 354°
2026-04-24 20:16 59.49645 24.72150 17388 ft 332 kts 354°
2026-04-24 20:16 59.51902 24.71987 16660 ft 328 kts 354°
2026-04-24 20:17 59.54141 24.71824 15924 ft 323 kts 354°
2026-04-24 20:17 59.58585 24.71504 14434 ft 316 kts 354°
2026-04-24 20:17 59.60738 24.71349 13700 ft 313 kts 354°
2026-04-24 20:18 59.62170 24.71246 13264 ft 311 kts 355°
2026-04-24 20:18 59.65008 24.71041 12425 ft 306 kts 355°
2026-04-24 20:18 59.67135 24.70887 11803 ft 303 kts 355°
2026-04-24 20:18 59.69220 24.70736 11175 ft 302 kts 355°
2026-04-24 20:19 59.71268 24.70588 10543 ft 298 kts 355°
2026-04-24 20:19 59.73334 24.70437 9895 ft 296 kts 355°
2026-04-24 20:19 59.75361 24.70292 9291 ft 286 kts 355°
2026-04-24 20:19 59.77280 24.70153 8773 ft 277 kts 355°
2026-04-24 20:20 59.79187 24.70014 8233 ft 270 kts 355°
2026-04-24 20:20 59.81010 24.69882 7756 ft 261 kts 355°
2026-04-24 20:20 59.82762 24.69757 7708 ft 244 kts 355°
2026-04-24 20:20 59.84451 24.69631 7768 ft 244 kts 355°
2026-04-24 20:21 59.86163 24.69503 7592 ft 251 kts 355°
2026-04-24 20:21 59.87919 24.69372 7013 ft 253 kts 356°
2026-04-24 20:21 59.89641 24.69247 6536 ft 251 kts 356°
2026-04-24 20:21 59.91410 24.69117 6053 ft 257 kts 356°
2026-04-24 20:22 59.93213 24.68984 5536 ft 263 kts 356°
2026-04-24 20:22 59.95022 24.68852 4989 ft 261 kts 356°
2026-04-24 20:22 59.96788 24.68724 4957 ft 249 kts 356°
2026-04-24 20:22 59.98493 24.68600 4943 ft 241 kts 356°
2026-04-24 20:23 60.00090 24.68481 4963 ft 239 kts 356°
2026-04-24 20:23 60.01747 24.68359 4966 ft 241 kts 356°
2026-04-24 20:23 60.03407 24.68237 4958 ft 238 kts 356°
2026-04-24 20:23 60.05059 24.68115 4942 ft 235 kts 356°
2026-04-24 20:24 60.06142 24.68035 4863 ft 232 kts 356°
2026-04-24 20:24 60.08265 24.67878 4426 ft 227 kts 356°
2026-04-24 20:24 60.09310 24.67800 4175 ft 225 kts 356°
2026-04-24 20:24 60.11346 24.67649 3740 ft 224 kts 356°
2026-04-24 20:25 60.12875 24.67535 3356 ft 220 kts 356°
2026-04-24 20:25 60.14391 24.67422 2984 ft 217 kts 356°
2026-04-24 20:25 60.15812 24.67316 2634 ft 214 kts 356°
2026-04-24 20:25 60.17293 24.67205 2307 ft 210 kts 357°
2026-04-24 20:26 60.18715 24.67101 2264 ft 197 kts 356°
2026-04-24 20:26 60.20044 24.67161 2250 ft 189 kts 14°
2026-04-24 20:26 60.21132 24.68532 2322 ft 187 kts 43°
2026-04-24 20:26 60.22034 24.70397 2261 ft 185 kts 43°
2026-04-24 20:27 60.22895 24.72174 2226 ft 164 kts 43°
2026-04-24 20:27 60.23631 24.73729 2242 ft 147 kts 43°
2026-04-24 20:27 60.24317 24.75186 2448 ft 142 kts 43°
2026-04-24 20:27 60.25004 24.76641 2663 ft 153 kts 43°
2026-04-24 20:28 60.25755 24.78264 2347 ft 157 kts 45°
2026-04-24 20:28 60.26431 24.79790 2102 ft 142 kts 45°
2026-04-24 20:28 60.27087 24.81246 1749 ft 140 kts 43°
2026-04-24 20:28 60.27752 24.82651 1454 ft 138 kts 44°
2026-04-24 20:29 60.28180 24.83587 1266 ft 140 kts 45°
2026-04-24 20:29 60.29053 24.85507 957 ft 143 kts 45°
2026-04-24 20:29 60.29726 24.86973 719 ft 142 kts 45°
2026-04-24 20:29 60.30392 24.88438 512 ft 141 kts 45°
2026-04-24 20:30 60.31062 24.89873 319 ft 140 kts 46°
2026-04-24 20:30 60.31701 24.91302 197 ft 133 kts 47°
2026-04-24 20:30 60.32260 24.92522 193 ft 102 kts 45°
2026-04-24 20:30 60.32646 24.93329 193 ft 59 kts 43°
2026-04-24 20:31 60.32884 24.93888 193 ft 49 kts 46°
2026-04-24 20:31 60.33014 24.94166 192 ft 10 kts 46°
2026-04-24 20:31 60.33048 24.94308 193 ft 13 kts 82°
2026-04-24 20:31 60.33047 24.94495 193 ft 9 kts 92°
2026-04-24 20:32 60.33046 24.94552 193 ft 2 kts 92°
2026-04-24 20:32 60.33046 24.94553 193 ft 0 kts 92°
2026-04-24 20:32 60.33046 24.94555 193 ft 0 kts 93°
2026-04-24 20:32 60.33044 24.94589 193 ft 3 kts 98°
2026-04-24 20:33 60.33036 24.94631 193 ft 2 kts 123°
2026-04-24 20:33 60.33024 24.94666 193 ft 4 kts 127°
2026-04-24 20:33 60.33002 24.94707 193 ft 4 kts 138°
2026-04-24 20:33 60.32973 24.94759 193 ft 6 kts 138°
2026-04-24 20:34 60.32940 24.94819 193 ft 6 kts 138°
2026-04-24 20:34 60.32906 24.94882 193 ft 6 kts 141°
2026-04-24 20:34 60.32865 24.94927 193 ft 6 kts 159°
2026-04-24 20:34 60.32817 24.94963 193 ft 8 kts 162°
2026-04-24 20:35 60.32753 24.95005 193 ft 10 kts 162°
2026-04-24 20:35 60.32694 24.95044 193 ft 6 kts 162°
2026-04-24 20:35 60.32645 24.95077 193 ft 8 kts 163°
2026-04-24 20:35 60.32585 24.95113 193 ft 9 kts 162°
2026-04-24 20:36 60.32513 24.95159 193 ft 12 kts 163°
2026-04-24 20:36 60.32426 24.95213 193 ft 14 kts 163°
2026-04-24 20:36 60.32349 24.95264 193 ft 4 kts 153°
2026-04-24 20:36 60.32311 24.95319 193 ft 8 kts 143°
2026-04-24 20:37 60.32258 24.95416 193 ft 12 kts 137°
2026-04-24 20:37 60.32192 24.95540 193 ft 13 kts 137°
2026-04-24 20:37 60.32155 24.95609 193 ft 9 kts 137°
2026-04-24 20:37 60.32138 24.95640 193 ft 10 kts 137°
2026-04-24 20:38 60.32035 24.95831 193 ft 7 kts 137°
2026-04-24 20:38 60.31995 24.95905 193 ft 9 kts 137°
2026-04-24 20:38 60.31949 24.95954 193 ft 5 kts 175°
2026-04-24 20:38 60.31908 24.95911 193 ft 8 kts 225°
2026-04-24 20:39 60.31860 24.95808 193 ft 11 kts 227°
2026-04-24 20:39 60.31795 24.95667 193 ft 11 kts 227°
2026-04-24 20:39 60.31751 24.95571 193 ft 7 kts 222°
2026-04-24 20:39 60.31704 24.95555 193 ft 7 kts 158°
2026-04-24 20:40 60.31653 24.95633 193 ft 9 kts 139°
2026-04-24 20:40 60.31621 24.95665 193 ft 4 kts 178°
2026-04-24 20:40 60.31588 24.95641 193 ft 2 kts 209°
2026-04-24 20:40 60.31570 24.95625 193 ft 2 kts 184°
2026-04-24 20:41 60.31550 24.95644 193 ft 2 kts 142°
2026-04-24 20:41 60.31533 24.95673 193 ft 4 kts 140°
2026-04-24 20:41 60.31519 24.95697 193 ft 2 kts 139°
2026-04-24 20:41 60.31514 24.95706 193 ft 0 kts 139°
2026-04-24 20:42 60.31513 24.95706 193 ft 0 kts 139°